Regional Weather Roundup
Issued by NWS Boston, MA

Home | Current Version | Previous Version | Text Only | Print | Product List | Glossary On
Versions: 1 2 3 4 5 6 7 8 9 10 11 12 13 14 15 16 17 18 19 20 21 22 23 24 25 26 27
000
ASUS41 KBOX 200010
RWRBOX

REGIONAL WEATHER ROUNDUP
NATIONAL WEATHER SERVICE TAUNTON MA
700 PM EST THU JAN 19 2017

NOTE:  "FAIR" INDICATES FEW OR NO CLOUDS BELOW 12,000 FEET WITH NO
SIGNIFICANT WEATHER AND/OR OBSTRUCTIONS TO VISIBILITY.

MAZALL-200100-
EASTERN MASSACHUSETTS

CITY           SKY/WX    TMP DP  RH WIND       PRES   REMARKS
BOSTON         CLOUDY    43  32  65 NW12      30.01R
6HR MIN TEMP:  43; 6HR MAX TEMP:  46;

BEVERLY        CLOUDY    41  33  73 NW8       29.99R
LAWRENCE       CLOUDY    39  33  79 W6        30.00R
BEDFORD        CLOUDY    40  31  70 N5        30.00R
BLUE HILL        N/A     38  32  79 NW7       29.97R
NORWOOD        CLOUDY    43  33  68 NW3       30.00R
MARSHFIELD     CLOUDY    43  32  65 NW7       29.99R
PLYMOUTH       CLOUDY    40  33  76 CALM      30.00R
TAUNTON        CLOUDY    43  31  62 NW5       29.99R
NEW BEDFORD    CLOUDY    44  33  65 CALM      29.99R
$$

MAZALL-200100-
CAPE COD AND THE ISLANDS

CITY           SKY/WX    TMP DP  RH WIND       PRES   REMARKS
FALMOUTH         N/A     39  34  81 MISG      30.00R
HYANNIS        PTCLDY    40  32  73 NW6       29.97R
CHATHAM        CLEAR     36  32  85 CALM      29.99R
PROVINCETOWN   PTCLDY    41  33  73 NW10      30.00R
NANTUCKET      PTCLDY    38  33  82 N6        29.98R
MARTHAS VNYRD  CLOUDY    41  35  79 CALM      29.99R
$$

MAZALL-200100-
CENTRAL AND WESTERN MASSACHUSETTS

CITY           SKY/WX    TMP DP  RH WIND       PRES   REMARKS
WORCESTER      CLOUDY    38  28  67 N10       29.97R WCI  31
6HR MIN TEMP:  36; 6HR MAX TEMP:  41;

FITCHBURG      CLOUDY    40  33  76 NW3       30.00R
ORANGE         CLOUDY    35  34  96 CALM      30.00S
SPRINGFIELD    CLOUDY    40  32  70 NW6       29.99S
WESTFIELD      CLOUDY    40  33  76 NW6       30.00S
NORTH ADAMS    CLOUDY    37  31  78 W6        30.00S
PITTSFIELD     CLOUDY    35  31  85 W10       29.97S WCI  27
$$

RIZALL-200100-
RHODE ISLAND

CITY           SKY/WX    TMP DP  RH WIND       PRES   REMARKS
PROVIDENCE     CLOUDY    44  33  65 N6        30.00R
6HR MIN TEMP:  44; 6HR MAX TEMP:  47;

NEWPORT        CLOUDY    42  35  76 N3        29.99R
SMITHFIELD     CLOUDY    41  32  70 NW3       29.99R
WESTERLY       CLOUDY    45  31  58 CALM      30.01R
$$

CTZALL-200100-
CONNECTICUT

CITY           SKY/WX    TMP DP  RH WIND       PRES   REMARKS
BRADLEY INTL   CLOUDY    41  32  70 NW9       30.01S
6HR MIN TEMP:  41; 6HR MAX TEMP:  49;

HARTFORD       CLOUDY    42  32  67 NW7       30.02R
BRIDGEPORT     CLOUDY    46  33  60 N7        30.03R
DANBURY        CLOUDY    42  32  67 NE8       30.03R
GROTON         CLOUDY    43  32  65 NW5       30.01R
NEW HAVEN      CLOUDY    44  31  60 N8        30.02R
CHESTER        CLOUDY    43  32  65 NW6       30.01R
MERIDEN        CLOUDY    44  30  57 NW6       30.03R
WILLIMANTIC    CLOUDY    43  33  68 NW3       30.01S
OXFORD         MOCLDY    39  28  65 N12G18    30.02R WCI  32
$$

MEZ002-015-021-024-NHZ003-005-008-011-012-014-VTZ005-008-200100-
NORTHERN NEW ENGLAND

CITY           SKY/WX    TMP DP  RH WIND       PRES   REMARKS
PORTLAND ME    MOCLDY    38  31  76 NW6       29.98R
6HR MIN TEMP:  35; 6HR MAX TEMP:  40;

BANGOR ME      MOCLDY    32  30  92 W3        29.94R
CONCORD NH     CLOUDY    37  30  75 NW8       29.99R WCI  31
MANCHESTER NH  NOT AVBL
NASHUA NH      NOT AVBL
PORTSMOUTH NH  CLOUDY    36  31  84 W7        29.98R WCI  30
JAFFREY NH     NOT AVBL
KEENE NH       NOT AVBL
BURLINGTON VT  CLOUDY    37  30  75 NE5       30.02R
MT. WASHINGTON MOCLDY    25  10  54 NW48        N/A  WCI   4
$$

NYZ052-076-200100-
EASTERN NEW YORK

CITY           SKY/WX    TMP DP  RH WIND       PRES   REMARKS
ALBANY         MOCLDY    37  31  78 NW6       30.03S
6HR MIN TEMP:  37; 6HR MAX TEMP:  42; 6HR PCP: TRACE;

NEW YORK CITY  MOCLDY    45  33  63 NW12      30.04R
6HR MIN TEMP:  45; 6HR MAX TEMP:  50;

$$

ANZALL-200100-
MARINE OBSERVATIONS

STATION/POSITION TIME  TEMP    WIND        PRES    VSBY  WAVE
                       AIR SEA DIR/SP/G                  HT/PER
                 (UTC) (F)     (DEG/KT/KT) (MB)    (MI)  (FT/S)
BOSTON BUOY      2250   43 44  310/ 10/ 12 1013.5          4/ 9
BUZZARDS BAY     0000   43      10/  2/  2 1016.1R
NANTUCKET SOUND  2250   41 41  330/  4/  6 1014.5          2/ 4
MASS BAY-STELLWA 2304   43 44  320/ 10/ 14 1014.1R  1 7/8  5/ 9
ISLE OF SHOALS   0000   39     290/ 11/ 12 1015.2R
S OF BLOCK IS    2355      47                N/A           5/11
$$

......................KEY.........................
  SKY/WX - SKY CONDITION/PRESENT WEATHER
  TMP    - TEMPERATURE IN FAHRENHEIT
  DWPT   - DEWPOINT IN FAHRENHEIT
  RH     - RELATIVE HUMIDITY IN PERCENT
  WIND   - DIRECTION AND SPEED IN MPH
  PRES   - MEAN SEA LEVEL PRESSURE IN INCHES OF HG
  WCI    - WIND CHILL INDEX
  VSB    - VISIBILITY IN MILES
  HX     - HEAT INDEX
  TC     - TEMPERATURE IN CELSIUS
  VRB    - VARIABLE WIND DIRECTION
  N/A    - NOT AVAILABLE




USA.gov is the U.S. government's official web portal to all federal, state and local government web resources and services.